Weather History for Mt. Pocono, PA

Change the Weather History Date:

Thursday, February 7, 2013

  Actual Average Record
Temperature  
Mean Temperature 16 °F 25 °F  
Max Temperature 25 °F 33 °F 51 °F (2005)
Min Temperature 6 °F 17 °F -20 °F (1907)
Degree Days  
Heating Degree Days 49 40  
Month to date heating degree days 330 286  
Since 1 July heating degree days 4030 4317  
Cooling Degree Days 0 0  
Month to date cooling degree days 0 0  
Year to date cooling degree days 0 0  
Moisture  
Dew Point 9 °F    
Average Humidity 69    
Maximum Humidity 83    
Minimum Humidity 55    
Precipitation  
Precipitation T in 0.07 in 2.21 in (1951)
Month to date precipitation 0.09 0.51  
Year to date precipitation 2.14 3.36  
Sea Level Pressure  
Sea Level Pressure 30.37 in    
Wind  
Wind Speed 6 mph (ESE)    
Max Wind Speed 14 mph    
Max Gust Speed 18 mph    
Visibility 10 miles    
Events      
T = Trace of Precipitation, MM = Missing Value Source: NWS Daily Summary

Daily Weather History Graph

Daily Weather History Graph

Search for Another Location

Airport:

Trip Planner

Search our weather history database for the weather conditions in past years. The results will help you decide how hot, cold, wet, or windy it might be!

Date:

Astronomy

Feb. 07, 2013 Rise Set
Actual Time 7:05 AM EST 5:26 PM EST
Civil Twilight 6:37 AM EST 5:54 PM EST
Nautical Twilight 6:04 AM EST 6:27 PM EST
Astronomical Twilight 5:32 AM EST 6:59 PM EST
Moon 4:44 AM EST (2/7) 2:47 PM EST (2/7)
Length of Visible Light 11h 17m
Length of Day
10h 20m
Waning Crescent, 9% of the Moon is Illuminated
Feb 7
Waning Crescent
Feb 10
New
Feb 17
First Quarter
Feb 25
Full
Mar 4
Last Quarter

Hourly Weather History & Observations

Time (EST) Temp. Windchill Dew Point Humidity Pressure Visibility Wind Dir Wind Speed Gust Speed Precip Events Conditions
12:53 AM 12.9 °F - 6.1 °F 74% 30.32 in 10.0 mi Calm Calm - N/A   Clear
1:53 AM 10.0 °F 3.6 °F 5.0 °F 80% 30.35 in 10.0 mi NNW 3.5 mph - N/A   Clear
2:53 AM 9.0 °F - 5.0 °F 84% 30.36 in 10.0 mi Calm Calm - N/A   Clear
3:53 AM 9.0 °F -0.9 °F 3.9 °F 80% 30.37 in 10.0 mi NNW 5.8 mph - N/A   Clear
4:53 AM 7.0 °F - 1.9 °F 80% 30.40 in 10.0 mi Calm Calm - N/A   Clear
5:53 AM 9.0 °F -0.9 °F 3.9 °F 80% 30.39 in 10.0 mi North 5.8 mph - N/A   Clear
6:53 AM 10.9 °F - 5.0 °F 77% 30.41 in 10.0 mi Calm Calm - N/A   Clear
7:53 AM 10.9 °F - 6.1 °F 81% 30.45 in 10.0 mi Calm Calm - N/A   Partly Cloudy
8:53 AM 15.1 °F - 9.0 °F 77% 30.46 in 10.0 mi Calm Calm - N/A   Clear
9:53 AM 21.0 °F 16.2 °F 10.0 °F 63% 30.46 in 10.0 mi ENE 3.5 mph - N/A   Partly Cloudy
10:53 AM 21.0 °F 12.4 °F 8.1 °F 57% 30.45 in 10.0 mi ESE 6.9 mph - N/A   Partly Cloudy
11:53 AM 21.9 °F 15.7 °F 10.0 °F 60% 30.43 in 10.0 mi East 4.6 mph - N/A   Clear
12:53 PM 23.0 °F 13.9 °F 10.0 °F 58% 30.43 in 10.0 mi ESE 8.1 mph - N/A   Overcast
1:53 PM 23.0 °F 13.1 °F 10.0 °F 58% 30.41 in 10.0 mi SE 9.2 mph - N/A   Mostly Cloudy
2:53 PM 24.1 °F 16.0 °F 10.9 °F 57% 30.39 in 10.0 mi SE 6.9 mph - N/A   Overcast
3:53 PM 24.1 °F 14.4 °F 10.9 °F 57% 30.37 in 10.0 mi SE 9.2 mph - N/A   Overcast
4:53 PM 24.1 °F 14.4 °F 12.0 °F 60% 30.37 in 10.0 mi SE 9.2 mph - N/A   Mostly Cloudy
5:53 PM 23.0 °F 13.1 °F 10.9 °F 60% 30.38 in 10.0 mi SE 9.2 mph - N/A   Overcast
6:53 PM 21.9 °F 11.7 °F 10.9 °F 63% 30.37 in 10.0 mi SE 9.2 mph - N/A   Clear
7:53 PM 21.9 °F 13.4 °F 10.9 °F 63% 30.38 in 10.0 mi SE 6.9 mph - N/A   Mostly Cloudy
8:53 PM 21.9 °F 11.0 °F 10.9 °F 63% 30.36 in 10.0 mi SE 10.4 mph - N/A   Overcast
9:53 PM 21.9 °F 11.0 °F 12.0 °F 66% 30.33 in 10.0 mi ESE 10.4 mph - N/A   Overcast
10:53 PM 21.9 °F 12.5 °F 10.9 °F 63% 30.32 in 10.0 mi East 8.1 mph - N/A   Overcast
11:09 PM 21.2 °F 10.9 °F 12.2 °F 68% 30.22 in 10.0 mi ESE 9.2 mph - N/A   Overcast
11:49 PM 21.2 °F 10.1 °F 12.2 °F 68% 30.19 in 9.0 mi ESE 10.4 mph - 0.00 in   Overcast
11:53 PM 21.0 °F 9.3 °F 12.0 °F 68% 30.28 in 9.0 mi ESE 11.5 mph - 0.00 in   Overcast